Tracking 22454 objects as of 5-Mar-2021
HD Live streaming from Space Station
objects crossing your sky now

CZ-3C DEB (VEB)

Track CZ-3C DEB (VEB) now!


NORAD ID: 38095
Int'l Code: 2012-008C
Perigee: 227.4 km
Apogee: 29,744.3 km
Inclination: 21.1 °
Period: 517.7 minutes
Semi major axis: 21356 km
RCS: 10.5644 m2 (large)
Launch date: February 24, 2012
Source: People's Republic of China (PRC)
Launch site: Xichang Space Center, China (XSC)

Note: This is SATELLITE DEBRIS
aabbcc
Your satellite tracking list
Your tracking list is empty




NASA's NSSDC Master Catalog

Two Line Element Set (TLE):
1 38095U 12008C   21063.92969807  .00012544  00000-0  13465-2 0  9995
2 38095  21.0957 342.4167 6910409 338.1459   3.0149  2.78161247 81981
Source of the keplerian elements: AFSPC